Tracking 29892 objects as of 21-Nov-2024
HD Live streaming from Space Station
objects crossing your sky now

PEGASUS DEB

Track PEGASUS DEB now!
10-day predictions


NORAD ID: 39922
Int'l Code: 1994-029AFV
Perigee: 537.8 km
Apogee: 731.0 km
Inclination: 81.6 °
Period: 97.3 minutes
Semi major axis: 7005 km
RCS: 0.0142 m2 (small)
Launch date: May 19, 1994
Source: United States (US)
Launch site: AIR FORCE WESTERN TEST RANGE (AFWTR)

Note: This is SATELLITE DEBRIS
Your satellite tracking list
Your tracking list is empty




NASA's NSSDC Master Catalog

Two Line Element Set (TLE):
1 39922U 94029AFV 24322.99514027  .00012225  00000-0  13473-2 0  9991
2 39922  81.5944 225.4925 0137882  40.7906 320.3527 14.80659531559128
Source of the keplerian elements: AFSPC